ALE-1 (43938 NORAD) Tracking and Keplerian Element Data

This shows tracking and keplerian element data for the satellite.

Feedback or suggestion? Click here.




ElementValue
Catalog43938
NameALE-1
Epoch Orbit25832
Epoch Day239.09149088
Epoch Year2023
RAAN285.8975
Inclination97.0683
Eccentricity0.0002458
Argument of Perigee259.8967
Mean Anonmoly100.2031
Mean Motion15.93223277
Decay Rate0.00179323
L11 43938U 19003G 23239.09149088 .00179323 14036-4 51306-3 0 9999
L22 43938 97.0683 285.8975 0002458 259.8967 100.2031 15.93223277258329



Live tracking and technical data element details for ALE-1 (NORAD 43938). ALE-1 can be tracked NOW for your location showing map with azimuth and elevation plus other details from your city location.







IsCatalogInMostPopularTable: catalog: 43938, numindb: 462
Update: records affected: 1



GetName: 43938 ALE-1

Hit Count: updated at: Thu, 21 May 2026 11:29:07 GMT